Location: Tuttlingen
(47.9853°N, 8.8165°E)
Time: 22:57:07
(UTC+01:00)

ISS - Pass Details

Date: 06 January 2018
Orbit: 402 x 407 km, 51.6° (Epoch: 18 January)

Event Time Altitude Azimuth Distance (km) Brightness Sun altitude
Exits shadow 05:13:40 13° 63° (ENE) 1,283 -0.6 -29.2°
Drops below altitude 10° 05:14:08 10° 65° (ENE) 1,470 -0.3 -29.1°
Sets 05:16:15 0° 70° (ENE) 2,333 1.0 -28.8°
